Regional Weather Roundup
Issued by NWS

Home | Current Version | Previous Version | Text Only | Print | Product List | Glossary On
Versions: 1 2 3 4 5 6 7 8 9 10 11 12 13 14 15 16 17 18 19 20 21 22 23 24 25 26 27 28 29 30 31 32 33 34 35 36 37 38 39 40 41 42 43 44 45 46 47 48 49 50
000
ASUS44 KLUB 281210
RWRTX
WEST TEXAS WEATHER ROUNDUP
NATIONAL WEATHER SERVICE LUBBOCK TX
700 AM CDT TUE MAR 28 2017

NOTE: "FAIR" INDICATES FEW OR NO CLOUDS BELOW 12,000 FEET WITH NO
SIGNIFICANT WEATHER AND/OR OBSTRUCTIONS TO VISIBILITY.

TXZ004-006>008-010-012-014-016-OKZ002-281300-
TEXAS PANHANDLE/OKLAHOMA PANHANDLE

CITY           SKY/WX    TMP DP  RH WIND       PRES   REMARKS
AMARILLO       CLOUDY    48  45  89 SE21      29.83F
BORGER         CLEAR     50  45  83 E8        29.84S
CANADIAN       PTCLDY    50  47  90 E12       29.87F
DALHART        MOCLDY    49  45  86 SE9       29.84S
DUMAS          PTCLDY    47  43  85 E10       29.83F
GUYMON         CLOUDY    49  45  86 E10       29.87F
HEREFORD       CLOUDY    52  47  84 SE14G24   29.82F
PAMPA          PTCLDY    49  46  87 SE16G22   29.85F
PERRYTON       CLOUDY    50  47  89 E16       29.88F
$$

TXZ026-029-035-045-048-281300-
SOUTHERN PANHANDLE/SOUTH PLAINS/ROLLING PLAINS

CITY           SKY/WX    TMP DP  RH WIND       PRES   REMARKS
CHILDRESS      CLOUDY    55  47  74 E14G21    29.85R
SEMINOLE       MOCLDY    59  52  78 SE3       29.74F
LUBBOCK        DRIZZLE   55  52  89 SE13      29.78S FOG
PLAINVIEW      CLOUDY    53  49  86 E15       29.80R
SNYDER         CLOUDY    66  62  86 SE13      29.78F
$$

TXZ052-054-060>062-072-078-127-140-154-169-281300-
PERMIAN BASIN/CONCHO VALLEY/BIG COUNTRY/EDWARDS PLATEAU

CITY           SKY/WX    TMP DP  RH WIND       PRES   REMARKS
ABILENE        CLOUDY    61  58  90 E12       29.80S
BIG SPRING     CLOUDY    66  60  82 SE13      29.76S
BROWNWOOD      CLOUDY    68  64  88 SE8       29.81R
JUNCTION       CLOUDY    68  64  87 E7        29.78R
MIDLAND        CLOUDY    68  60  75 S13       29.73S
ODESSA         MOCLDY    68  60  75 S13       29.73F
SAN ANGELO     CLOUDY    68  62  81 SE5       29.77S
SONORA         MOCLDY    70  64  83 S9        29.82R
SWEETWATER     CLOUDY    67  64  89 SE13      29.81R
WINK           LGT RAIN  61  59  93 SE10      29.68S FOG
$$

TXZ055-058-074-075-080-082-281300-
FAR WEST/SOUTHWEST MOUNTAINS/TRANS PECOS

CITY           SKY/WX    TMP DP  RH WIND       PRES   REMARKS
ALPINE         CLEAR     55  39  54 SW7       29.85S
DRYDEN           N/A     68  65  90 SE10      29.72R
EL PASO        PTCLDY    64  26  23 W17       29.75S
FORT STOCKTON  CLEAR     62  56  80 S9        29.73S
GUADALUPE PASS CLEAR     54  27  35 W12       29.82R
MARFA          CLEAR     40  31  70 N6        29.84
PECOS          CLEAR     50  28  43 CALM      29.70S
PRESIDIO       FAIR      59  34  38 NE8       29.76S
$$

TXZ014-016-019-021>030-083-281300
TEXAS TECH WEST TEXAS MESONET/TEXAS PANHANDLE/NORTHERN SOUTH PLAINS

CITY           SKY/WX    TMP DP  RH WIND       PRES   REMARKS
ABERNATHY 5ENE   N/A     53  50  90 E14       29.81S
AMARILLO 9NNE    N/A     50  46  86 SE20      29.81F
AMARILLO 7SSE    N/A     49  45  84 E13       29.84S
AMHERST 1NE      N/A     52  48  87 E14       29.77F
BOOTLEG 11WNW    N/A     48  43  84 E12       29.83S
CANADIAN 6E      N/A     49  46  89 NE14      29.86F
CAPROCK CYN SP   N/A     51  46  83 N1        29.85S
CHILDRESS 2NNE   N/A     53  48  81 E12       29.85S
CLARENDON 2WSW   N/A     50  45  83 E8        29.85F
CLAUDE 12SW      N/A     50  46  85 E12       29.85R
DIMMITT 2NE      N/A     50  46  84 E10       29.81S
FLOYDADA 2NNE    N/A     52  48  86 E13       29.81S
FRIONA 2NE       N/A     49  44  84 E12       29.81S
GOODLETT 3W      N/A     54  47  78 NE10      29.84S
HART 3N          N/A     51  47  85 E16       29.80F
HEREFORD 2NW     N/A     51  45  80 E10       29.81F
MCLEAN 1E        N/A     49  45  87 E9        29.85F
MEMPHIS 1NE      N/A     53  47  80 NE10      29.85F
MULESHOE 2SSW    N/A     50  45  81 E10       29.77F
OLTON 6S         N/A     52  47  82 E16       29.79F
PALO DURO SP     N/A     51  46  80 SE8       29.85S
PAMPA 2E         N/A     46  44  94 E13       29.85F
PLAINVIEW 1S     N/A     53  49  86 E9        29.81R
SILVERTON 7ESE   N/A     51  47  83 E12       29.85R
TULIA 2ENE       N/A     52  49  87 E14       29.82S
TURKEY 2WSW      N/A     54  49  83 E9        29.84S
UMBARGER 3NNE    N/A     49  45  84 E14       29.83F
$$

TXZ033>036-039>041-045>048-281300
TEXAS TECH WEST TEXAS MESONET/SOUTH PLAINS

CITY           SKY/WX    TMP DP  RH WIND       PRES   REMARKS
AIKEN 3WSW       N/A     54  49  85 E12       29.83R
ANDREWS 2NE      N/A     58  53  86 SE7       29.72F
ANTON 6SSW       N/A     54  50  86 E14       29.78S
BROWNFIELD 2S    N/A     58  50  74 E9        29.75F
DENVR CTY 7WNW   N/A     56  49  75 SE8       29.74S
GAIL 2ESE        N/A     63  56  77 E7        29.76R
LAMESA 2SE       N/A     64  58  82 SE10      29.76R
LEVELLAND 4S     N/A     55  47  73 E13       29.76F
LUBBOCK 3WNW     N/A     55  52  88 E9        29.79F
MORTON 1ENE      N/A     54  46  73 E13       29.76F
ODONNELL 1N      N/A     59  51  73 E7        29.77R
PLAINS 3N        N/A     56  49  78 SE9       29.75F
RALLS 1SE        N/A     54  51  89 E14       29.80S
REESE CENTER     N/A     54  49  82 E13       29.78F
SEAGRAVES 1SW    N/A     60  53  78 SE7       29.74F
SEMINOLE 2NNE    N/A     59  51  74 SE6       29.73F
SLATON 2NE       N/A     53  49  85 E12       29.79S
SNYDER 3E        N/A     61  55  82 E9        29.77F
SUNDOWN 8SW      N/A     57  50  78 SE7       29.75F
TAHOKA 3NNE      N/A     55  47  74 E10       29.78S
WOLFFORTH 6SSW   N/A     55  47  74 E12       29.78F
$$

TXZ031-032-036>038-042>044-281300-
TEXAS TECH WEST TEXAS MESONET/ROLLING PLAINS

CITY           SKY/WX    TMP DP  RH WIND       PRES   REMARKS
ASPERMONT 3NE    N/A     61  52  72 E12       29.80S
FLUVANNA 3WNW    N/A     59  51  75 E9        29.77F
GRAHAM 5SSW      N/A     56  49  77 E7        29.77S
GUTHRIE 10WSW    N/A     59  50  73 E12       29.80S
HASKELL 1NW      N/A     61  51  70 E13       29.81S
JAYTON 1SSE      N/A     60  52  76 E13       29.79R
KNOX CITY 3NW    N/A     61  51  68 E14       29.82S
LK A HENRY 1NW   N/A     57  49  74 E7        29.77F
NORTHFIELD 1S    N/A     54  49  83 E9        29.82F
ODELL 4ENE       N/A     54  49  83 E16       29.87R
PADUCAH 10SW     N/A     57  50  79 E7        29.81F
POST 1NE         N/A     55  47  76 NE5       29.78F
RRING SPRGS 3N   N/A     55  51  84 E10       29.81F
SEYMOUR 3NW      N/A     61  51  70 E13       29.83S
SPUR 1W          N/A     57  51  78 E12       29.79S
WEINERT 2NNE     N/A     60  52  74 E8        29.83R
WHITE RVR 6NE    N/A     54  50  85 E12       29.79S
$$

TXZ052-054-060>062-072-078-127-140-154-169-281300-
TEXAS TECH WEST TEXAS MESONET/PERMIAN BASIN/
CONCHO VALLEY/BIG COUNTRY/EDWARDS PLATEAU

CITY           SKY/WX    TMP DP  RH WIND       PRES   REMARKS
COYANOSA 2N      N/A     62  58  86 SE8       29.70S
JUNCTION 1SSW    N/A     69  64  84 SE5       29.79R
MERTZON 3NNE     N/A     68  63  85 SE7       29.78S
SAN ANGELO 7NW   N/A     63  57  82 E3        29.78S
STRLNG CT 4WSW   N/A     65  61  87 E12       29.76F
ST LAWRNCE 5SW   N/A     67  61  81 SE16      29.73F
SWEETWATR 11SW   N/A     64  62  94 SE14      29.79S
WALL 1E          N/A     68  63  85 SE9       29.79R
$$

TXZ055-058-074-075-080-082-281300-
TEXAS TECH WEST TEXAS MESONET/FAR WEST/SOUTHWEST MOUNTAINS/TRANS PECOS

CITY           SKY/WX    TMP DP  RH WIND       PRES   REMARKS
PRSMN GAP BBNP   N/A     63  57  81 NE2       29.74S
GUADLPE MTN NP   N/A     58  27  30 W9        29.82R
$$




USA.gov is the U.S. government's official web portal to all federal, state and local government web resources and services.